ONEWEB-0358 (49284 NORAD) Tracking and Keplerian Element Data

This shows tracking and keplerian element data for the satellite.

Feedback or suggestion? Click here.




ElementValue
Catalog49284
NameONEWEB-0358
Epoch Orbit353
Epoch Day339.91667824
Epoch Year2021
RAAN275.0273
Inclination87.1991
Eccentricity0.0010292
Argument of Perigee76.0301
Mean Anonmoly232.8375
Mean Motion14.8844116
Decay Rate-0.00052518
L11 49284U 21090F 21339.91667824 -.00052518 00000+0 -57103-2 0 9990
L22 49284 87.1991 275.0273 0010292 76.0301 232.8375 14.88441160 3539

Live tracking and technical data element details for ONEWEB-0358 (NORAD 49284). ONEWEB-0358 can be tracked NOW for your location showing map with azimuth and elevation plus other details from your city location.

Track the satellite on the map from your city or location and see movement details for azimuth, elevation, latitude, longitude, range, height, and movement on the map or in text.







IsCatalogInMostPopularTable: catalog: 49284, numindb: 5
Update: records affected: 1



GetName: 49284 ONEWEB-0358

Hit Count: updated at: Mon, 06 Dec 2021 15:48:15 GMT